Flag for Germany Weather past 2 weeks in Kaufbeuren, Bavaria, Germany

Now
43 °F

Scattered showers. Broken clouds.


Feels Like: 33 °F
Forecast: 40 / 50 °F
Wind: 25 mph from Northwest

Location: Altenstadt Airport

Current Time: Mar 30, 2015 at 2:57:33 PM

Latest Report: Mar 30, 2015 at 2:20 PM


Visibility: N/A

Pressure: 29.71 "Hg

Humidity: 81%

Dew point: 37 °F

Location of KaufbeurenLocation

Historic Weather in Kaufbeuren — Graph

°F

Kaufbeuren temperature yesterday

Maximum temperature yesterday: 52 °F (at 12:20 PM)
Minimum temperature yesterday: 43 °F (at 12:20 AM)
Average temperature yesterday: 46 °F

Past Weeks' High & Low Weather Summary

 TemperatureHumidityPressure
High61 °F (Mar 17, 12:20 PM)100% (Mar 21, 10:20 PM)30.24 "Hg (Mar 21, 10:20 PM)
Low28 °F (Mar 20, 5:20 AM)27% (Mar 17, 12:20 PM)29.53 "Hg (Mar 25, 2:20 PM)
Average42 °F76%29.98 "Hg
* Reported Mar 15 12:20 PM — Mar 30 1:20 PM, Kaufbeuren, Weather by CustomWeather, © 2015

Note: Actual official high and low records may vary slightly from our data, if they occured in-between our weather recording intervals... More about our weather records

Advertising

Kaufbeuren weather history for previous 24 hours

 ConditionsComfort  
Time TempWeatherWind HumidityBarometerVisibility
1:20 PM
Mon, Mar 30
41 °FLight rain. Partly sunny.29 mph87%29.68 "Hg5 mi
12:20 PM41 °FRain. Fog.26 mph93%29.68 "Hg3 mi
12:00 PM43 °FRain. Broken clouds.22 mph93%29.65 "Hg5 mi
11:20 AM45 °FPartly sunny.24 mph87%29.62 "HgN/A
10:20 AM43 °FRain. Mostly cloudy.22 mph93%29.62 "HgN/A
9:20 AM41 °FRain. Cloudy.25 mph93%29.59 "HgN/A
8:50 AM45 °FRain. Broken clouds.30 mph87%29.56 "HgN/A
8:20 AM45 °FLight rain. Broken clouds.35 mph87%29.53 "HgN/A
7:52 AM45 °FLight rain. Passing clouds.36 mph81%29.53 "HgN/A
7:20 AM45 °FLight rain. Passing clouds.32 mph87%29.56 "HgN/A
6:20 AM45 °FLight rain. Mostly cloudy.32 mph87%29.56 "HgN/A
5:20 AM45 °FRain. Mostly cloudy.33 mph87%29.56 "HgN/A
4:20 AM45 °FQuite cool.30 mph87%29.56 "HgN/A
3:20 AM45 °FQuite cool.33 mph87%29.56 "HgN/A
2:20 AM45 °FQuite cool.33 mph87%29.59 "HgN/A
1:20 AM45 °FQuite cool.30 mph87%29.62 "HgN/A
12:20 AM45 °FQuite cool.33 mph87%29.65 "HgN/A
11:20 PM
Sun, Mar 29
45 °FQuite cool.33 mph93%29.65 "HgN/A
10:20 PM46 °FCool.37 mph82%29.65 "HgN/A
9:20 PM46 °FCool.32 mph82%29.68 "HgN/A
8:20 PM48 °FCool.35 mph71%29.68 "HgN/A
7:20 PM46 °FCool.32 mph82%29.71 "HgN/A
6:20 PM45 °FQuite cool.32 mph87%29.74 "HgN/A
5:20 PM45 °FQuite cool.33 mph87%29.74 "HgN/A
4:20 PM45 °FQuite cool.31 mph87%29.77 "HgN/A
3:20 PM46 °FCool.32 mph87%29.77 "HgN/A
2:20 PM52 °FCool.31 mph62%29.80 "HgN/A
Weather by CustomWeather, © 2015

See weather overviewHow to use our weather pages